Sigfox identifier Datetime Temperature Humidity SNR
003A602D 2019-04-23 14:56:14 15.3 36 23.1
003A602D 2019-04-23 14:23:07 15.3 36 22.9
003A602D 2019-04-23 13:50:02 15.3 36 22.8
003A602D 2019-04-23 13:16:57 15.3 36 22.6
003A602D 2019-04-23 12:43:52 15.2 36 22.5
003A602D 2019-04-23 12:10:47 15.2 36 22.2
003A602D 2019-04-23 11:37:42 15.2 36 22
003A602D 2019-04-23 11:04:36 15.2 36 21.5
003A602D 2019-04-23 10:31:30 15.1 36 21
003A602D 2019-04-23 09:58:25 15.1 36 20.8
003A602D 2019-04-23 09:25:21 15.2 36 20.4
003A602D 2019-04-23 08:52:16 15.1 36 20.1
003A602D 2019-04-23 08:19:11 15.2 36 19.8
003A602D 2019-04-23 07:46:05 15.1 35 19.9
003A602D 2019-04-23 07:13:00 15.2 35 20
003A602D 2019-04-23 06:39:54 15.2 35 20
003A602D 2019-04-23 06:06:50 15.2 35 20
003A602D 2019-04-23 05:33:45 15.2 35 19.9
003A602D 2019-04-23 05:00:39 15.2 35 19.9
003A602D 2019-04-23 04:27:34 15.3 35 19.7
003A602D 2019-04-23 03:54:29 15.3 35 19.6
003A602D 2019-04-23 03:21:23 15.3 35 19.6
003A602D 2019-04-23 02:48:18 15.3 35 19.5
003A602D 2019-04-23 02:15:13 15.3 35 19.5
003A602D 2019-04-23 01:42:08 15.3 35 19.4
003A602D 2019-04-23 01:09:03 15.3 35 19.4
003A602D 2019-04-23 00:35:58 15.3 35 19.4
003A602D 2019-04-23 00:02:52 15.3 35 19.1
003A602D 2019-04-22 23:29:47 15.3 35 19.4
003A602D 2019-04-22 22:56:41 15.3 35 19.2
003A602D 2019-04-22 22:23:35 15.3 35 19.2
003A602D 2019-04-22 21:50:30 15.3 35 19.3
003A602D 2019-04-22 21:17:24 15.3 35 19.3
003A602D 2019-04-22 20:44:17 15.3 35 19.2
003A602D 2019-04-22 20:11:10 15.3 35 19.2
003A602D 2019-04-22 19:38:04 15.3 35 19.3
003A602D 2019-04-22 19:04:58 15.3 35 19.3
003A602D 2019-04-22 18:31:53 15.3 35 19.2
003A602D 2019-04-22 17:58:47 15.3 35 19.2
003A602D 2019-04-22 17:25:40 15.3 35 19.3
003A602D 2019-04-22 16:52:33 15.3 35 19.3
003A602D 2019-04-22 16:19:27 15.3 35 19.2
003A602D 2019-04-22 15:46:21 15.2 35 19.3
003A602D 2019-04-22 15:13:14 15.2 35 19.3
003A602D 2019-04-22 14:40:07 15.2 35 19.3
003A602D 2019-04-22 14:07:01 15.2 35 19.4
003A602D 2019-04-22 13:33:55 15.1 35 19.4
003A602D 2019-04-22 13:00:49 15.1 35 19.4
003A602D 2019-04-22 12:27:43 15.1 35 19.7
003A602D 2019-04-22 11:54:37 15.1 35 19.8
003A602D 2019-04-22 11:21:31 15.1 35 19.9
003A602D 2019-04-22 10:48:23 15.1 35 19.9
003A602D 2019-04-22 10:15:16 15.1 35 19.9
003A602D 2019-04-22 09:42:10 15.1 35 20
003A602D 2019-04-22 09:09:03 15.1 35 19.9
003A602D 2019-04-22 08:35:57 15.1 35 19.8
003A602D 2019-04-22 08:02:50 15.1 35 19.7
003A602D 2019-04-22 07:29:44 15.1 35 19.7
003A602D 2019-04-22 06:56:37 15.1 35 19.8
003A602D 2019-04-22 06:23:31 15.1 35 19.8
003A602D 2019-04-22 05:50:24 15.1 35 19.7
003A602D 2019-04-22 05:17:17 15.1 35 19.7
003A602D 2019-04-22 04:44:08 15.1 35 19.7
003A602D 2019-04-22 04:11:01 15.1 35 19.6
003A602D 2019-04-22 03:37:53 15.1 35 19.6
003A602D 2019-04-22 03:04:47 15.1 35 19.6
003A602D 2019-04-22 02:31:41 15.1 35 19.5
003A602D 2019-04-22 01:58:34 15.1 35 19.4
003A602D 2019-04-22 01:25:27 15.1 35 19.3
003A602D 2019-04-22 00:52:20 15.1 35 19.2
003A602D 2019-04-22 00:19:14 15.1 35 19.1
003A602D 2019-04-21 23:46:08 15.1 35 19.2
003A602D 2019-04-21 23:13:01 15.1 35 18.9
003A602D 2019-04-21 22:39:55 15.1 35 18.7
003A602D 2019-04-21 22:06:49 15.1 35 18.5
003A602D 2019-04-21 21:33:43 15.1 35 18.6
003A602D 2019-04-21 21:00:37 15.1 35 18.7
003A602D 2019-04-21 20:27:33 15.1 35 18.9
003A602D 2019-04-21 19:54:25 15.1 35 19
003A602D 2019-04-21 19:21:19 15.1 35 19.1
003A602D 2019-04-21 18:48:12 15.1 35 19.2
003A602D 2019-04-21 18:15:06 15.1 35 19.3
003A602D 2019-04-21 17:42:00 15.1 35 19.4
003A602D 2019-04-21 17:08:53 15.1 35 19.4
003A602D 2019-04-21 16:35:46 15.1 35 19.5
003A602D 2019-04-21 16:02:39 15.1 35 19.6
003A602D 2019-04-21 15:29:32 15.1 35 19.7
003A602D 2019-04-21 14:56:24 15.1 35 19.7
003A602D 2019-04-21 14:23:16 15.1 35 19.8
003A602D 2019-04-21 13:50:10 15.1 35 19.9
003A602D 2019-04-21 13:17:01 15.1 35 20
003A602D 2019-04-21 12:43:54 15.1 35 20
003A602D 2019-04-21 12:10:47 15.1 35 20.1
003A602D 2019-04-21 11:37:41 15.1 35 20.3
003A602D 2019-04-21 11:04:35 15.1 35 20.2
003A602D 2019-04-21 10:31:29 15.1 35 20.2
003A602D 2019-04-21 09:58:23 15.1 35 20.3
003A602D 2019-04-21 09:25:15 15.2 35 20.3
003A602D 2019-04-21 08:52:10 15.2 35 20.4
003A602D 2019-04-21 08:19:02 15.2 35 20.4
003A602D 2019-04-21 07:45:55 15.2 35 20.3
003A602D 2019-04-21 07:12:47 15.2 35 20.3
003A602D 2019-04-21 06:39:40 15.2 35 20.2
003A602D 2019-04-21 06:06:33 15.2 35 20.2
003A602D 2019-04-21 05:33:26 15.2 35 20.2
003A602D 2019-04-21 05:00:18 15.1 35 20.1
003A602D 2019-04-21 04:27:11 15.1 35 20.2
003A602D 2019-04-21 03:54:04 15.2 35 20.2
003A602D 2019-04-21 03:20:56 15.2 35 20.1
003A602D 2019-04-21 02:47:48 15.2 35 20.1
003A602D 2019-04-21 02:14:42 15.2 35 20.1
003A602D 2019-04-21 01:41:35 15.2 35 20.1
003A602D 2019-04-21 01:08:29 15.2 35 20
003A602D 2019-04-21 00:35:23 15.2 35 19.9
003A602D 2019-04-21 00:02:16 15.2 35 19.9
003A602D 2019-04-20 23:29:10 15.1 35 19.8
003A602D 2019-04-20 22:56:04 15.2 35 19.8
003A602D 2019-04-20 22:22:58 15.2 35 19.8
003A602D 2019-04-20 21:49:51 15.2 35 19.8
003A602D 2019-04-20 21:16:45 15.3 35 19.7
003A602D 2019-04-20 20:43:38 15.2 35 19.6
003A602D 2019-04-20 20:10:31 15.2 35 19.7
003A602D 2019-04-20 19:37:24 15.2 35 19.7
003A602D 2019-04-20 19:04:18 15.3 35 19.6
003A602D 2019-04-20 18:31:12 15.3 35 19.7
003A602D 2019-04-20 17:58:06 15.3 35 19.9
003A602D 2019-04-20 17:24:59 15.3 35 19.6
003A602D 2019-04-20 16:51:52 15.3 35 19.6
003A602D 2019-04-20 16:18:46 15.3 35 19.6
003A602D 2019-04-20 15:45:39 15.3 35 19.5
003A602D 2019-04-20 15:12:33 15.3 35 19.6
003A602D 2019-04-20 14:39:26 15.3 35 19.5
003A602D 2019-04-20 14:06:20 15.3 34 19.4
003A602D 2019-04-20 13:33:14 15.3 35 19.5
003A602D 2019-04-20 13:00:07 15.3 34 19.5
003A602D 2019-04-20 12:27:00 15.3 34 19.4
003A602D 2019-04-20 11:53:54 15.3 34 19.3
003A602D 2019-04-20 11:20:46 15.3 34 19.1
003A602D 2019-04-20 10:47:40 15.3 34 19.1
003A602D 2019-04-20 10:14:34 15.3 34 18.9
003A602D 2019-04-20 09:41:28 15.4 34 19
003A602D 2019-04-20 09:08:23 15.4 34 18.9
003A602D 2019-04-20 08:35:18 15.5 34 18.8
003A602D 2019-04-20 08:02:12 15.4 34 18.7
003A602D 2019-04-20 07:29:06 15.4 34 18.8
003A602D 2019-04-20 06:55:59 15.5 34 18.9
003A602D 2019-04-20 06:22:53 15.5 34 18.7
003A602D 2019-04-20 05:49:46 15.5 34 18.7
003A602D 2019-04-20 05:16:39 15.5 34 18.7
003A602D 2019-04-20 04:43:33 15.5 34 18.7
003A602D 2019-04-20 04:10:26 15.5 34 18.6
003A602D 2019-04-20 03:37:20 15.5 34 18.8
003A602D 2019-04-20 03:04:13 15.5 34 18.9
003A602D 2019-04-20 02:31:07 15.5 34 18.9
003A602D 2019-04-20 01:58:01 15.6 34 19
003A602D 2019-04-20 01:24:56 15.6 34 19
003A602D 2019-04-20 00:51:47 15.6 34 19
003A602D 2019-04-20 00:18:41 15.7 34 19
003A602D 2019-04-19 23:45:35 15.7 34 19
003A602D 2019-04-19 23:12:26 15.7 34 19.1
003A602D 2019-04-19 22:39:22 15.7 34 19.5
003A602D 2019-04-19 22:06:14 15.7 34 19.2
003A602D 2019-04-19 21:33:07 15.7 34 19.5
003A602D 2019-04-19 21:00:00 15.7 34 19.6
003A602D 2019-04-19 20:26:53 15.7 34 19.6
003A602D 2019-04-19 19:53:46 15.7 34 19.7
003A602D 2019-04-19 19:20:39 15.7 34 19.8
003A602D 2019-04-19 18:47:33 15.7 34 20
003A602D 2019-04-19 18:14:26 15.6 34 20
003A602D 2019-04-19 17:41:18 15.6 34 20
003A602D 2019-04-19 17:08:12 15.6 34 20.1
003A602D 2019-04-19 16:35:04 15.6 34 20.2
003A602D 2019-04-19 16:01:55 15.6 34 20.3
003A602D 2019-04-19 15:28:47 15.6 34 20.3
003A602D 2019-04-19 14:55:39 15.5 34 20.4
003A602D 2019-04-19 14:22:32 15.5 34 20.4
003A602D 2019-04-19 13:49:25 15.6 34 20.4
003A602D 2019-04-19 13:16:17 15.6 34 20.4
003A602D 2019-04-19 12:43:09 15.7 34 20.5
003A602D 2019-04-19 12:10:01 15.6 34 20.4
003A602D 2019-04-19 11:36:53 15.7 34 20.4
003A602D 2019-04-19 11:03:45 15.6 34 20.4
003A602D 2019-04-19 10:30:37 15.7 34 20.3
003A602D 2019-04-19 09:57:30 15.7 34 20.3
003A602D 2019-04-19 09:24:21 15.7 34 20.1
003A602D 2019-04-19 08:51:14 15.7 34 20.4
003A602D 2019-04-19 08:18:06 15.7 34 20.6
003A602D 2019-04-19 07:44:57 15.7 34 20.9
003A602D 2019-04-19 07:11:49 15.7 34 21.2
003A602D 2019-04-19 06:38:41 15.7 34 21.3
003A602D 2019-04-19 06:05:32 15.9 34 21.5
003A602D 2019-04-19 05:32:23 15.9 34 21.6
003A602D 2019-04-19 04:59:14 15.9 34 21.8
003A602D 2019-04-19 04:26:05 15.9 34 21.8
003A602D 2019-04-19 03:52:56 15.9 34 22.3
003A602D 2019-04-19 03:19:48 15.9 34 22.7
003A602D 2019-04-19 02:46:39 15.9 34 22.9
003A602D 2019-04-19 02:13:30 16 34 23.1
003A602D 2019-04-19 01:40:21 16.1 34 23.6
003A602D 2019-04-19 01:07:12 16.1 34 23.6
003A602D 2019-04-19 00:34:03 16.1 34 23.7
003A602D 2019-04-19 00:00:54 16.1 34 23.9
003A602D 2019-04-18 23:27:45 16.1 34 24
003A602D 2019-04-18 22:54:36 16.1 34 24.2
003A602D 2019-04-18 22:21:27 16.1 34 24.4
003A602D 2019-04-18 21:48:18 16.1 34 24.3
003A602D 2019-04-18 21:15:10 16.1 34 24.4
003A602D 2019-04-18 20:42:02 16.1 34 24.5
003A602D 2019-04-18 20:08:55 16.1 34 24.5
003A602D 2019-04-18 19:35:48 16.1 34 24.6
003A602D 2019-04-18 19:02:41 16.1 34 24.6
003A602D 2019-04-18 18:29:34 16.1 34 24.5
003A602D 2019-04-18 17:56:27 16.2 34 24.4
003A602D 2019-04-18 17:23:19 16.1 34 24.5
003A602D 2019-04-18 16:50:11 16.1 34 24.4
003A602D 2019-04-18 16:17:04 16.1 33 24.3
003A602D 2019-04-18 15:43:57 16.1 33 24.3
003A602D 2019-04-18 15:10:50 16 33 24.3
003A602D 2019-04-18 14:37:44 16 33 24
003A602D 2019-04-18 14:04:38 16.1 33 23.7
003A602D 2019-04-18 13:31:32 16.1 33 23.5
003A602D 2019-04-18 12:58:25 16.1 33 23.5
003A602D 2019-04-18 12:25:18 16.1 33 22.9
003A602D 2019-04-18 11:52:12 16.1 33 23
003A602D 2019-04-18 11:19:06 16.1 33 23
003A602D 2019-04-18 10:45:59 16.1 33 22.8
003A602D 2019-04-18 10:12:53 16.1 33 22.7
003A602D 2019-04-18 09:39:47 16.1 33 22.5
003A602D 2019-04-18 09:06:41 16.1 33 22.3
003A602D 2019-04-18 08:33:35 16.2 33 22.4
003A602D 2019-04-18 08:00:28 16.3 33 22.3
003A602D 2019-04-18 07:27:23 16.3 33 22.3
003A602D 2019-04-18 06:54:14 16.3 33 22.3
003A602D 2019-04-18 06:21:09 16.3 33 22.3
003A602D 2019-04-18 05:48:04 16.4 33 22.2
003A602D 2019-04-18 05:14:58 16.4 33 22.4
003A602D 2019-04-18 04:41:53 16.4 33 22.5
003A602D 2019-04-18 04:08:48 16.4 33 22.3
003A602D 2019-04-18 03:35:43 16.5 33 22.1
003A602D 2019-04-18 03:02:39 16.5 33 22
003A602D 2019-04-18 02:29:35 16.6 33 21.9
003A602D 2019-04-18 01:56:31 16.6 33 21.7
003A602D 2019-04-18 01:23:27 16.6 33 21.6
003A602D 2019-04-18 00:50:23 16.8 33 21.7
003A602D 2019-04-18 00:17:19 16.8 33 21.5
003A602D 2019-04-17 23:44:16 16.8 33 21.7
003A602D 2019-04-17 23:11:14 16.8 33 21.7
003A602D 2019-04-17 22:38:11 16.8 33 21.8
003A602D 2019-04-17 22:05:06 16.8 33 21.7
003A602D 2019-04-17 21:32:02 16.8 33 21.5
003A602D 2019-04-17 20:58:57 16.8 33 21.3
003A602D 2019-04-17 20:25:52 16.8 33 21.1
003A602D 2019-04-17 19:52:45 16.9 32 21.1
003A602D 2019-04-17 19:19:39 17 32 21.1
003A602D 2019-04-17 18:46:33 16.9 32 21.2
003A602D 2019-04-17 18:13:28 17 32 21.2
003A602D 2019-04-17 17:40:22 17 32 21.2
003A602D 2019-04-17 17:07:18 17 32 21.1
003A602D 2019-04-17 16:34:14 17.2 32 21.1
003A602D 2019-04-17 16:01:09 17.2 32 21.2
003A602D 2019-04-17 15:28:06 17.2 32 22
003A602D 2019-04-17 14:55:02 17.3 32 22.8
003A602D 2019-04-17 14:21:58 17.4 32 22.8
003A602D 2019-04-17 13:48:55 17.4 32 23.1
003A602D 2019-04-17 13:15:50 17.4 32 23.1
003A602D 2019-04-17 12:42:45 17.4 32 23.1
003A602D 2019-04-17 12:09:41 17.5 31 23.1
003A602D 2019-04-17 11:36:35 17.6 31 23
003A602D 2019-04-17 11:03:32 17.6 31 23
003A602D 2019-04-17 10:30:28 17.6 31 22.8
003A602D 2019-04-17 09:57:23 17.7 31 22.7
003A602D 2019-04-17 09:24:19 17.8 31 23.4
003A602D 2019-04-17 08:51:16 17.9 31 23.3
003A602D 2019-04-17 08:18:12 18 31 23.3
003A602D 2019-04-17 07:45:07 18.1 31 23.4
003A602D 2019-04-17 07:12:04 18.1 30 23.4
003A602D 2019-04-17 06:39:00 18.2 30 23.4
003A602D 2019-04-17 06:05:55 18.3 30 23.6
003A602D 2019-04-17 05:32:50 18.3 30 23.5
003A602D 2019-04-17 04:59:46 18.4 30 23.5
003A602D 2019-04-17 04:26:42 18.5 30 23.4
003A602D 2019-04-17 03:53:37 18.5 30 23.3
003A602D 2019-04-17 03:20:32 18.6 30 23.2
003A602D 2019-04-17 02:47:28 18.7 30 23.1
003A602D 2019-04-17 02:14:22 18.7 29 22.1
003A602D 2019-04-17 01:41:16 18.7 29 21
003A602D 2019-04-17 01:08:11 18.9 29 20.8
003A602D 2019-04-17 00:35:07 18.9 29 20.7
003A602D 2019-04-17 00:02:02 18.9 29 20.4
003A602D 2019-04-16 23:28:58 19.1 29 20.2
003A602D 2019-04-16 22:55:53 19.2 28 20.1
003A602D 2019-04-16 22:22:49 19.3 28 20
003A602D 2019-04-16 21:49:46 19.3 28 20
003A602D 2019-04-16 21:16:41 19.4 28 19.8
003A602D 2019-04-16 20:43:36 19.5 28 19.8
003A602D 2019-04-16 20:10:32 19.5 28 19.8
003A602D 2019-04-16 19:37:27 19.6 28 17.5
003A602D 2019-04-16 19:04:22 19.8 27 17.3
003A602D 2019-04-16 18:31:18 19.8 27 17.2
003A602D 2019-04-16 17:58:12 19.9 27 16.7
003A602D 2019-04-16 17:25:07 20 27 16.6
003A602D 2019-04-16 16:52:02 20.1 27 15.9
003A602D 2019-04-16 16:18:55 20.2 27 14
003A602D 2019-04-16 15:12:44 20.4 27 17.7
003A602D 2019-04-16 14:39:39 20.4 27 17.5
003A602D 2019-04-16 13:33:30 20.4 27 17.5
003A602D 2019-04-16 13:00:28 20.4 27 17.5
003A602D 2019-04-16 12:27:22 20.4 27 17.5
003A602D 2019-04-16 11:54:20 20.4 28 17.6
003A602D 2019-04-16 11:21:11 20.3 29 19.9
003A602D 2019-04-16 10:48:06 20.2 30 19.9
003A602D 2019-04-16 10:15:01 20.2 30 19.8
003A602D 2019-04-16 09:41:56 20.2 29 19.7
003A602D 2019-04-16 09:08:51 20.2 29 19.8
003A602D 2019-04-16 08:35:47 20.2 29 19.8
003A602D 2019-04-16 08:02:43 20.2 29 19.8
003A602D 2019-04-16 07:29:38 20.2 29 19.9
003A602D 2019-04-16 06:56:33 20.2 29 19.9
003A602D 2019-04-16 06:23:29 20.2 29 19.9
003A602D 2019-04-16 05:50:27 20.2 29 19.9
003A602D 2019-04-16 05:17:20 20.2 29 19.8
003A602D 2019-04-16 04:44:17 20.2 29 19.8
003A602D 2019-04-16 04:11:13 20.3 29 19.8
003A602D 2019-04-16 03:38:10 20.3 29 19.8
003A602D 2019-04-16 03:05:07 20.3 28 19.8
003A602D 2019-04-16 02:32:04 20.3 28 20
003A602D 2019-04-16 01:59:02 20.3 28 20.5
003A602D 2019-04-16 01:26:01 20.4 28 20.5
003A602D 2019-04-16 00:52:58 20.4 28 20.9
003A602D 2019-04-16 00:19:55 20.4 28 21.3
003A602D 2019-04-15 23:46:51 20.4 28 21.8
003A602D 2019-04-15 23:13:50 20.4 28 22.4
003A602D 2019-04-15 22:40:43 20.4 27 22.9
003A602D 2019-04-15 22:07:38 20.5 27 22.1
003A602D 2019-04-15 21:34:33 20.4 27 22.4
003A602D 2019-04-15 21:01:29 20.5 27 22.7
003A602D 2019-04-15 20:28:26 20.5 27 22.9
003A602D 2019-04-15 19:55:22 20.6 26 23.3
003A602D 2019-04-15 19:22:18 20.6 26 23.6
003A602D 2019-04-15 18:49:16 20.6 26 23.8
003A602D 2019-04-15 18:16:10 20.6 25 24.2
003A602D 2019-04-15 17:43:07 20.7 25 24.4
003A602D 2019-04-15 17:10:05 20.8 25 24.6
003A602D 2019-04-15 16:36:57 20.9 24 24.7
003A602D 2019-04-15 16:03:53 21 24 25
003A602D 2019-04-15 15:30:51 21 23 25.3
003A602D 2019-04-15 14:57:49 21.1 23 25.5
003A602D 2019-04-15 14:24:48 21.3 22 25.6
003A602D 2019-04-15 13:51:45 21.5 21 25.8
003A602D 2019-04-15 13:18:38 21.6 19 25.9
003A602D 2019-04-15 12:45:35 21.9 18 26
003A602D 2019-04-15 12:12:32 22.1 17 26
003A602D 2019-04-15 11:39:29 22.1 15 25.6
003A602D 2019-04-15 11:06:26 21.9 16 25.6
003A602D 2019-04-15 10:33:21 21.9 16 25.6
003A602D 2019-04-15 10:00:16 21.9 16 25.6
003A602D 2019-04-15 09:27:12 21.9 17 25.4
003A602D 2019-04-15 08:54:08 21.7 16 25.3
003A602D 2019-04-15 08:21:04 21.7 16 25.4
003A602D 2019-04-15 07:47:58 21.7 16 25.6
003A602D 2019-04-15 07:14:55 21.5 16 25.6
003A602D 2019-04-15 06:41:51 21.5 17 25.8
003A602D 2019-04-15 06:08:47 21.5 17 25.7
003A602D 2019-04-15 05:35:43 21.5 17 25.7
003A602D 2019-04-15 05:02:40 21.5 17 25.7
003A602D 2019-04-15 04:29:36 21.5 17 25.7
003A602D 2019-04-15 03:56:32 21.5 17 25.8
003A602D 2019-04-15 03:23:31 21.5 17 25.8
003A602D 2019-04-15 02:50:29 21.5 17 25.8
003A602D 2019-04-15 02:17:25 21.5 17 25.7
003A602D 2019-04-15 01:44:22 21.5 17 25.6
003A602D 2019-04-15 01:11:19 21.5 17 25.5
003A602D 2019-04-15 00:38:15 21.5 17 25.5
003A602D 2019-04-15 00:05:10 21.5 17 25.5
003A602D 2019-04-14 23:32:05 21.5 17 25.6
003A602D 2019-04-14 22:59:01 21.5 17 25.6
003A602D 2019-04-14 22:25:56 21.5 17 25.7
003A602D 2019-04-14 21:52:51 21.5 18 25.7
003A602D 2019-04-14 21:19:46 21.6 18 25.8
003A602D 2019-04-14 20:46:41 21.7 18 25.9
003A602D 2019-04-14 20:13:37 21.7 18 25.9
003A602D 2019-04-14 19:40:34 21.7 18 25.9
003A602D 2019-04-14 19:07:32 21.7 18 25.9
003A602D 2019-04-14 18:34:28 21.7 17 26.2
003A602D 2019-04-14 18:01:25 21.7 17 26.1
003A602D 2019-04-14 17:28:22 21.7 17 26.1
003A602D 2019-04-14 16:55:17 21.6 17 26
003A602D 2019-04-14 16:22:13 21.5 17 26.1
003A602D 2019-04-14 15:49:09 21.5 17 26.1
003A602D 2019-04-14 15:16:03 21.5 18 26.1
003A602D 2019-04-14 14:43:00 21.6 18 26.1
003A602D 2019-04-14 14:09:55 21.7 18 26
003A602D 2019-04-14 13:36:52 21.6 18 26
003A602D 2019-04-14 13:03:48 21.7 18 26
003A602D 2019-04-14 12:30:44 21.7 18 26.1
003A602D 2019-04-14 11:57:40 21.6 18 26.2
003A602D 2019-04-14 11:24:35 21.6 18 26.2
003A602D 2019-04-14 10:51:30 21.5 18 26.2
003A602D 2019-04-14 10:18:25 21.6 18 26.2
003A602D 2019-04-14 09:45:20 21.6 18 26.2
003A602D 2019-04-14 09:12:16 21.5 18 26.2
003A602D 2019-04-14 08:39:13 21.5 18 26.1
003A602D 2019-04-14 08:06:10 21.5 18 26.1
003A602D 2019-04-14 07:33:07 21.5 17 26
003A602D 2019-04-14 07:00:04 21.5 17 25.9
003A602D 2019-04-14 06:27:00 21.5 17 25.9
003A602D 2019-04-14 05:53:58 21.5 17 26
003A602D 2019-04-14 05:20:53 21.5 17 25.9
003A602D 2019-04-14 04:47:50 21.5 17 25.6
003A602D 2019-04-14 04:14:46 21.5 17 25.6
003A602D 2019-04-14 03:41:41 21.5 17 25.6
003A602D 2019-04-14 03:08:38 21.5 17 25.5
003A602D 2019-04-14 02:35:32 21.6 17 25.8
003A602D 2019-04-14 02:02:28 21.6 17 25.9
003A602D 2019-04-14 01:29:23 21.6 17 25.8
003A602D 2019-04-14 00:56:18 21.7 17 25.8
003A602D 2019-04-14 00:23:15 21.7 17 25.7
003A602D 2019-04-13 23:50:11 21.7 17 25.7
003A602D 2019-04-13 23:17:07 21.7 17 25.6
003A602D 2019-04-13 22:44:02 21.7 17 25.4
003A602D 2019-04-13 22:10:57 21.7 17 25.7
003A602D 2019-04-13 21:37:53 21.7 17 25.7
003A602D 2019-04-13 21:04:49 21.7 17 25.8
003A602D 2019-04-13 20:31:45 21.7 17 25.9
003A602D 2019-04-13 19:58:41 21.8 17 25.8
003A602D 2019-04-13 19:25:37 21.8 17 25.8
003A602D 2019-04-13 18:52:32 21.9 17 25.8
003A602D 2019-04-13 18:19:28 21.9 17 25.8
003A602D 2019-04-13 17:46:23 21.9 17 25.9
003A602D 2019-04-13 17:13:18 21.9 17 26.2
003A602D 2019-04-13 16:40:14 21.9 17 26.3
003A602D 2019-04-13 16:07:09 21.9 17 26.2
003A602D 2019-04-13 15:34:05 21.9 17 26.5
003A602D 2019-04-13 15:01:00 21.9 17 26.6
003A602D 2019-04-13 14:27:56 22 17 26.6
003A602D 2019-04-13 13:54:53 22.1 17 26.6
003A602D 2019-04-13 13:21:49 22.1 17 26.6
003A602D 2019-04-13 12:48:44 22.1 17 26.4
003A602D 2019-04-13 12:15:40 22.1 17 26.3
003A602D 2019-04-13 11:42:37 22.1 17 26.4
003A602D 2019-04-13 11:09:33 22.1 17 26.5
003A602D 2019-04-13 10:36:27 22.1 17 26.6
003A602D 2019-04-13 10:03:23 22 17 26.7
003A602D 2019-04-13 09:30:18 22 17 26.9
003A602D 2019-04-13 08:57:14 22 17 27.1
003A602D 2019-04-13 08:24:09 22 17 27.1
003A602D 2019-04-13 07:51:05 22 17 27.1
003A602D 2019-04-13 07:18:01 22 17 27.1
003A602D 2019-04-13 06:44:57 22 17 27.1
003A602D 2019-04-13 06:11:54 22 17 27.1
003A602D 2019-04-13 05:38:50 22 17 27.1
003A602D 2019-04-13 05:05:47 22.1 17 27.4
003A602D 2019-04-13 04:32:43 22 17 27.3
003A602D 2019-04-13 03:59:39 21.9 17 27.5
003A602D 2019-04-13 03:26:36 22.1 17 27.5
003A602D 2019-04-13 02:53:31 22.1 17 27.5
003A602D 2019-04-13 02:20:27 22.1 17 27.6
003A602D 2019-04-13 01:47:24 22.1 17 27.5
003A602D 2019-04-13 01:14:19 22.1 17 27.4
003A602D 2019-04-13 00:41:15 22.2 17 27.5
003A602D 2019-04-13 00:08:10 22.2 17 27.6
003A602D 2019-04-12 23:35:06 22.3 17 27.7
003A602D 2019-04-12 23:02:01 22.3 17 27.7
003A602D 2019-04-12 22:28:56 22.3 18 27.9
003A602D 2019-04-12 21:55:52 22.3 18 28
003A602D 2019-04-12 21:22:47 22.4 18 28
003A602D 2019-04-12 20:49:41 22.5 18 28.1
003A602D 2019-04-12 20:16:36 22.5 17 28.1
003A602D 2019-04-12 19:43:32 22.4 17 28.1
003A602D 2019-04-12 19:10:27 22.5 17 27.8
003A602D 2019-04-12 18:37:23 22.5 16 27.5
003A602D 2019-04-12 18:04:19 22.7 15 27.8
003A602D 2019-04-12 17:31:14 22.8 16 27.9
003A602D 2019-04-12 16:58:08 22.8 16 28.1
003A602D 2019-04-12 16:25:01 22.9 16 28.4
003A602D 2019-04-12 15:51:55 22.9 17 28.8
003A602D 2019-04-12 15:18:49 22.8 17 28.5
003A602D 2019-04-12 14:45:42 22.8 17 29.2
003A602D 2019-04-12 14:12:37 22.5 18 28.8
003A602D 2019-04-12 13:39:31 22.1 17 27.1
003A602D 2019-04-12 13:06:24 21 21 0